THORAD AGENA D DEB, 42516

Orbit data source: Space-Track

THORAD AGENA D DEB, 42516 is space debris in SSO originally from a launch on Wed, 08 Apr 1970 UTC launched from the Air Force Western Test Range (AFWTR). Debris objects in space refer to the collection of defunct objects orbiting the Earth. Examples of debris include non-operational satellites, rocket bodies, and fragments generated from explosions, collisions, or faulty payload assembly.

Loading next visibility...
Identifier
42516, 1970-025RW
Orbit
SSO
Country
Flag of USUS
Related business
Manufacturer
Unknown
Mission
Spacecraft
Bus & Motor
Unknown
Mass
Unknown
Launch date (UTC)
1970-04-08 (56 years ago)
Launch vehicle
Unknown
Launch site
Air Force Western Test Range (AFWTR)
Object type
Payload
Rocket body
Debris
Shape & HBR
Unknown shape, 0.1 m
Radar Cross Section
Medium (>0.1 m² and <1 m²)

Expand to show TLE details & history
Last TLE update: 3 days ago

TLE from 3 days ago
0 THORAD AGENA D DEB
1 42516U 70025RW  26234.40035279  .00001409  00000-0  18284-2 0  9998
2 42516  99.6705 302.4145 0052372  29.1157 331.2888 13.63353037631017
Epoch: 2026-08-22T09:36Z
TLE epoch observation values (Epoch: 2026-08-22T09:36:30.481Z)
Latitude
0.00003°
Longitude
-172.42381°
Altitude
992.379 km
Speed
7.372 km/s
True Right ascension
20h 09m 39s
True Declination
0° 00' 00"
Sunlit
Object was in full shadow at epoch
Visualization orbit readout
Latitude
Unknown
Longitude
Unknown
Altitude
Unknown
Speed
Unknown
Apparent Right ascension
Unknown
Apparent Declination
Unknown
Sunlit
N/A
Visualization observer readout
Local Sidereal Time
19:20:00
Azimuth
Unknown
Elevation
Unknown
Doppler factor
Unknown
Orbital elements
Apogee altitude
1,059.563 km
Perigee altitude
982.063 km
Semi-major axis
7,398.95 km
Eccentricity
0.00524
Inclination
99.6705°
RAAN
302.4145°
Arg. of periapsis
29.1157°
True anomaly
330.99883°
Mean anomaly
331.2888°
Eccentric anomaly
331.14398°
Mean motion
3.41026 °/min
Orbital period
105.56 mins
BSTAR
0.0018284
Loading maneuver chart data...
Computing Atmospheric mass density...

Documentation

Showing up to 5 results
|